Regional Weather Roundup
Issued by NWS Northern Indiana

Home | Current Version | Previous Version | Graphics & Text | Print | Product List | Glossary On
Versions: 1 2 3 4 5 6 7 8 9 10 11 12 13 14 15 16 17 18 19 20 21 22 23 24 25 26 27 28 29 30 31 32 33 34 35 36 37 38 39 40 41 42 43 44 45 46 47 48 49 50
000
ASUS43 KIWX 220610
RWRIWX

KIWX WEATHER ROUNDUP
NATIONAL WEATHER SERVICE NORTHERN INDIANA
100 AM EST MON DEC 22 2014

NOTE: "FAIR" INDICATES FEW OR NO CLOUDS BELOW 12,000 FEET WITH NO
SIGNIFICANT WEATHER AND/OR OBSTRUCTIONS TO VISIBILITY.

* THESE STATIONS ARE NOT UNDER NWS QUALITY CONTROL. THEY ALSO MAY NOT
  REPORT WEATHER SUCH AS PRECIPITATION OR FOG.

INZ001>027-220700-
NORTHERN INDIANA

CITY           SKY/WX    TMP DP  RH WIND       PRES   REMARKS
GARY*          MOCLDY    33  25  71 S7        30.05S WCI  27
VALPARAISO     PTCLDY    29  25  85 SE8       30.05F WCI  21
6HR MIN TEMP:  29; 6HR MAX TEMP:  32;

MICHIGAN CITY* PTCLDY    32  23  69 SE6       30.06F WCI  26
LAPORTE*       MOCLDY    31  28  86 SE6       30.06F FOG     WCI  25
6HR MIN TEMP:  31; 6HR MAX TEMP:  33;

KNOX*          PTCLDY    30  23  77 SE10      30.05F WCI  21
6HR MIN TEMP:   9; 6HR MAX TEMP:  81;

SOUTH BEND     PTCLDY    31  25  78 SE10      30.08F WCI  22
6HR MIN TEMP:  31; 6HR MAX TEMP:  33;

GOSHEN         CLEAR     29  24  82 SE12      30.08F WCI  19
6HR MIN TEMP:  28; 6HR MAX TEMP:  32;

MONTICELLO*    CLEAR     30  27  88 SE3       30.05F
6HR MIN TEMP:  30; 6HR MAX TEMP:  32;

LOGANSPORT*    CLEAR     28  27  93 E7        30.07F FOG     WCI  21
ROCHESTER*     CLEAR     32  30  93 SE7       30.07F FOG     WCI  26
WARSAW*        PTCLDY    30  27  86 SE5       30.08F FOG     WCI  25
ANGOLA*        CLEAR     27  21  80 SE7       30.09F WCI  19
FORT WAYNE     MOCLDY    27  24  89 E7        30.10F WCI  19
6HR MIN TEMP:  26; 6HR MAX TEMP:  29;

HUNTINGTON*    PTCLDY    28  25  91 SE5       30.08F WCI  22
6HR MIN TEMP:  28; 6HR MAX TEMP:  30;

PERU/GRISSOM   PTCLDY    28  28 100 E7        30.05F WCI  21
6HR MIN TEMP:  28; 6HR MAX TEMP:  31;

MARION*        MOCLDY    29  25  87 SE7       30.08F WCI  21
6HR MIN TEMP:  22; 6HR MAX TEMP:  50;


$$
INZ028>050-220700-
CENTRAL INDIANA

CITY           SKY/WX    TMP DP  RH WIND       PRES   REMARKS
LAFAYETTE      PTCLDY    27  24  89 E6        30.05F WCI  20
6HR MIN TEMP:  27; 6HR MAX TEMP:  32;

KOKOMO*        PTCLDY    28  25  86 E9        30.05F WCI  20
6HR MIN TEMP:  28; 6HR MAX TEMP:  32;

MUNCIE*        MOCLDY    30  25  81 SE7       30.07F WCI  23
6HR MIN TEMP:  28; 6HR MAX TEMP:  31;

INDIANAPOLIS   MOCLDY    28  24  85 SE6       30.06S WCI  22
6HR MIN TEMP:  28; 6HR MAX TEMP:  31;


$$
MIZ043>046-050>051-056>058-064>065-071>073-077>080-220700-
SOUTHWEST LOWER MICHIGAN

CITY           SKY/WX    TMP DP  RH WIND       PRES   REMARKS
BATTLE CREEK   CLEAR     29  23  78 SE8       30.09F WCI  21
6HR MIN TEMP:  29; 6HR MAX TEMP:  32;

BENTON HARBOR  PTCLDY    30  25  81 SE12      30.06F WCI  20
6HR MIN TEMP:  30; 6HR MAX TEMP:  32;

COLDWATER*     PTCLDY    28  24  84 MISG      30.09F
6HR MIN TEMP:  28; 6HR MAX TEMP:  30;

HILLSDALE*     PTCLDY    27  25  91 SE8       30.11F FOG     WCI  19
HOLLAND        CLOUDY    33  25  72 SE10      30.07F WCI  25
6HR MIN TEMP:  32; 6HR MAX TEMP:  36;

GRAND RAPIDS   CLEAR     29  24  82 SE9       30.09F HAZE    WCI  20
6HR MIN TEMP:  29; 6HR MAX TEMP:  30;

KALAMAZOO      PTCLDY    29  24  82 SE6       30.09F WCI  23
6HR MIN TEMP:  29; 6HR MAX TEMP:  32;

STURGIS*       PTCLDY    27  25  93 SE7       30.08F FOG     WCI  19
THREE RIVERS*  FAIR      28  24  85 E5        30.09F FOG     WCI  23
6HR MIN TEMP:  28; 6HR MAX TEMP:  32;


$$
OHZ001>008-015>018-024>025-220700-
NORTHWEST OHIO

CITY           SKY/WX    TMP DP  RH WIND       PRES   REMARKS
WAUSEON*       FAIR      25  23  93 E6        30.14F FOG     WCI  18
DEFIANCE       MOCLDY    26  22  84 E7        30.13F WCI  18
6HR MIN TEMP:  26; 6HR MAX TEMP:  29;

FINDLAY        MOCLDY    28  22  78 E8        30.13F WCI  20
6HR MIN TEMP:  28; 6HR MAX TEMP:  30;

TOLEDO EXPRESS MOCLDY    25  21  85 E5        30.15F FOG     WCI  19
6HR MIN TEMP:  25; 6HR MAX TEMP:  28;

TOLEDO METCALF MOCLDY    24  20  84 E6        30.17F FOG     WCI  17
6HR MIN TEMP:  24; 6HR MAX TEMP:  29;

LIMA           PTCLDY    29  22  75 E9        30.11F WCI  20
6HR MIN TEMP:  29; 6HR MAX TEMP:  32;


$$
AND FOR LAKE MICHIGAN COASTAL AND OPEN LAKE BUOY OBSERVATIONS

STATION/POSITION TEMP    WIND        PRES    VSBY  WAVE
                 AIR SEA DIR/SP/G                  HT/PER
                 (F)     (DEG/KT/KT) (MB)    (MI)  (FT/S)
CALUMET HARBOR    33     160/  8/ 12 1016.0S
SAINT JOSEPH      32     140/  4/ 11 1018.6R

$$
&&



USA.gov is the U.S. government's official web portal to all federal, state and local government web resources and services.